Location: *
(49.9853°N, 3.5569°E)
Time: 10:42:21
(UTC+00:00)

RESURS DK-1 - Pass Details

Date: 22 September 2019
Orbit: 557 x 561 km, 69.9° (Epoch: 15 October)

Event Time Altitude Azimuth Distance (km) Brightness Sun altitude
Rises 19:20:26 0° 333° (NNW) 2,759 6.7 -15.9°
Reaches altitude 10° 19:22:45 10° 340° (NNW) 1,858 5.6 -16.3°
Maximum altitude 19:26:42 42° 52° (NE) 812 2.9 -16.8°
Enters shadow 19:27:47 34° 91° (E) 933 3.0 -17.0°
